QPF
0.00 0.00 0.00 0.00 0.00 0.00 0.00 0.00 0.00 0.00 0.00 0.00 0.00 0.01 0.02 0.01 0.01 0.01 0.00 0.00 0.02 0.02 0.00 0.00 0.00 0.00 0.00 0.00 0.00 0.00 0.01 0.00 0.00 0.00 0.00 0.00 0.00 0.00 0.00 0.00 0.00 0.00 0.00 0.00 0.00 0.00 0.00 0.00 0.00 0.00 0.00 0.00 0.00 0.00
0.00 0.00 0.00 0.00 0.00 0.00 0.00 0.00 0.00 0.00 0.00 0.00 0.00 0.01 0.02 0.02 0.01 0.02 0.00 0.01 0.02 0.02 0.00 0.00 0.00 0.00 0.00 0.00 0.00 0.00 0.01 0.00 0.00 0.00 0.00 0.00 0.00 0.00 0.00 0.00 0.00 0.00 0.00 0.00 0.00 0.00 0.00 0.00 0.00 0.00 0.00 0.00 0.00 0.00
0.00 0.00 0.00 0.00 0.00 0.00 0.00 0.00 0.00 0.00 0.00 0.00 0.00 0.00 0.01 0.02 0.02 0.03 0.01 0.01 0.01 0.01 0.00 0.00 0.00 0.00 0.00 0.00 0.00 0.00 0.01 0.00 0.00 0.00 0.00 0.00 0.00 0.00 0.00 0.00 0.00 0.00 0.00 0.00 0.00 0.00 0.00 0.00 0.00 0.00 0.00 0.00 0.00 0.00
0.00 0.00 0.00 0.00 0.00 0.00 0.00 0.00 0.00 0.00 0.00 0.00 0.00 0.00 0.00 0.00 0.01 0.01 0.00 0.01 0.00 0.00 0.00 0.00 0.00 0.00 0.00 0.00 0.00 0.00 0.00 0.00 0.00 0.00 0.00 0.00 0.00 0.00 0.00 0.00 0.00 0.00 0.00 0.00 0.00 0.00 0.00 0.00 0.00 0.00 0.00 0.00 0.00 0.00
0.00 0.00 0.00 0.00 0.00 0.00 0.00 0.00 0.00 0.00 0.00 0.00 0.00 0.00 0.00 0.00 0.00 0.00 0.00 0.00 0.00 0.00 0.00 0.00 0.00 0.00 0.00 0.00 0.00 0.00 0.00 0.00 0.00 0.00 0.01 0.00 0.00 0.00 0.00 0.00 0.00 0.00 0.00 0.00 0.00 0.00 0.00 0.00 0.00 0.00 0.00 0.00 0.00 0.00
0.00 0.00 0.00 0.00 0.00 0.00 0.00 0.00 0.00 0.00 0.00 0.00 0.00 0.00 0.00 0.00 0.01 0.00 0.00 0.00 0.00 0.00 0.00 0.00 0.00 0.00 0.00 0.00 0.00 0.00 0.00 0.00 0.01 0.02 0.01 0.00 0.00 0.00 0.00 0.00 0.00 0.00 0.00 0.00 0.00 0.00 0.00 0.00 0.00 0.00 0.00 0.00 0.00 0.00
0.00 0.00 0.00 0.00 0.00 0.00 0.00 0.00 0.00 0.00 0.00 0.00 0.00 0.00 0.00 0.00 0.00 0.00 0.00 0.00 0.00 0.00 0.00 0.00 0.00 0.00 0.00 0.00 0.00 0.00 0.00 0.00 0.01 0.02 0.01 0.01 0.01 0.00 0.00 0.00 0.00 0.00 0.00 0.00 0.00 0.00 0.00 0.00 0.00 0.00 0.00 0.00 0.00 0.00
0.00 0.00 0.00 0.00 0.00 0.00 0.00 0.00 0.00 0.00 0.00 0.00 0.00 0.00 0.00 0.00 0.00 0.00 0.00 0.00 0.00 0.00 0.00 0.00 0.00 0.00 0.00 0.01 0.01 0.00 0.00 0.00 0.01 0.02 0.02 0.04 0.06 0.02 0.01 0.00 0.00 0.00 0.00 0.00 0.00 0.00 0.00 0.00 0.00 0.00 0.00 0.00 0.00 0.00
0.00 0.00 0.00 0.00 0.00 0.00 0.00 0.00 0.00 0.00 0.00 0.00 0.00 0.00 0.00 0.00 0.00 0.00 0.00 0.00 0.00 0.00 0.00 0.00 0.00 0.00 0.00 0.00 0.00 0.00 0.00 0.00 0.01 0.03 0.03 0.04 0.05 0.03 0.01 0.01 0.00 0.00 0.00 0.00 0.00 0.00 0.00 0.00 0.00 0.00 0.00 0.00 0.00 0.00
0.00 0.00 0.00 0.00 0.00 0.00 0.00 0.00 0.00 0.00 0.00 0.00 0.00 0.00 0.00 0.00 0.00 0.00 0.00 0.00 0.00 0.00 0.00 0.00 0.00 0.00 0.00 0.00 0.00 0.00 0.00 0.00 0.00 0.02 0.02 0.05 0.04 0.02 0.00 0.01 0.00 0.00 0.00 0.00 0.00 0.00 0.00 0.00 0.00 0.00 0.00 0.00 0.00 0.00
0.00 0.00 0.00 0.00 0.00 0.00 0.00 0.00 0.00 0.00 0.00 0.00 0.00 0.00 0.00 0.00 0.00 0.00 0.00 0.00 0.00 0.00 0.00 0.00 0.00 0.00 0.00 0.00 0.00 0.00 0.00 0.00 0.01 0.01 0.02 0.04 0.03 0.01 0.00 0.00 0.00 0.00 0.00 0.00 0.00 0.00 0.00 0.00 0.00 0.00 0.00 0.00 0.00 0.00
0.00 0.00 0.00 0.00 0.00 0.00 0.00 0.00 0.00 0.00 0.00 0.00 0.00 0.00 0.00 0.00 0.00 0.00 0.00 0.00 0.00 0.00 0.00 0.00 0.00 0.00 0.00 0.00 0.03 0.01 0.00 0.01 0.00 0.00 0.02 0.02 0.01 0.00 0.00 0.00 0.00 0.00 0.00 0.00 0.00 0.00 0.00 0.00 0.00 0.00 0.00 0.00 0.00 0.00
0.00 0.00 0.00 0.00 0.00 0.00 0.00 0.00 0.00 0.00 0.00 0.00 0.00 0.00 0.00 0.00 0.00 0.00 0.00 0.00 0.00 0.00 0.00 0.00 0.00 0.00 0.00 0.00 0.01 0.01 0.00 0.00 0.00 0.00 0.00 0.01 0.00 0.00 0.00 0.00 0.01 0.00 0.00 0.00 0.00 0.00 0.00 0.00 0.00 0.00 0.00 0.00 0.00 0.00
0.00 0.00 0.00 0.00 0.00 0.00 0.00 0.00 0.00 0.00 0.00 0.00 0.00 0.00 0.00 0.00 0.00 0.00 0.00 0.00 0.00 0.00 0.00 0.00 0.00 0.00 0.00 0.00 0.00 0.00 0.00 0.00 0.00 0.00 0.00 0.00 0.00 0.00 0.00 0.00 0.01 0.00 0.00 0.00 0.00 0.00 0.00 0.00 0.00 0.00 0.00 0.00 0.00 0.00
0.00 0.00 0.00 0.00 0.00 0.00 0.00 0.00 0.00 0.00 0.00 0.00 0.00 0.00 0.00 0.00 0.00 0.00 0.00 0.00 0.00 0.00 0.00 0.00 0.00 0.00 0.00 0.00 0.00 0.00 0.00 0.00 0.00 0.00 0.00 0.00 0.00 0.00 0.00 0.00 0.00 0.00 0.00 0.00 0.00 0.00 0.00 0.00 0.00 0.00 0.00 0.00 0.00 0.00
0.00 0.00 0.00 0.00 0.00 0.00 0.00 0.00 0.00 0.00 0.00 0.00 0.00 0.00 0.00 0.00 0.00 0.00 0.00 0.00 0.00 0.00 0.00 0.00 0.00 0.00 0.00 0.00 0.00 0.00 0.00 0.00 0.00 0.00 0.00 0.00 0.00 0.00 0.00 0.00 0.00 0.00 0.00 0.00 0.00 0.00 0.00 0.00 0.00 0.00 0.00 0.00 0.00 0.01
0.00 0.00 0.00 0.00 0.00 0.00 0.00 0.00 0.00 0.00 0.00 0.00 0.00 0.00 0.00 0.00 0.00 0.00 0.00 0.00 0.00 0.00 0.00 0.00 0.00 0.00 0.00 0.00 0.00 0.00 0.00 0.00 0.00 0.00 0.00 0.00 0.00 0.00 0.00 0.00 0.00 0.00 0.00 0.00 0.00 0.00 0.00 0.00 0.00 0.00 0.00 0.00 0.00 0.01
0.00 0.00 0.00 0.00 0.00 0.00 0.00 0.00 0.00 0.00 0.00 0.00 0.00 0.00 0.00 0.00 0.00 0.00 0.00 0.00 0.00 0.00 0.00 0.00 0.00 0.00 0.00 0.00 0.00 0.00 0.00 0.00 0.00 0.00 0.00 0.00 0.00 0.00 0.00 0.00 0.00 0.00 0.00 0.00 0.00 0.00 0.00 0.00 0.00 0.00 0.00 0.00 0.00 0.00
0.00 0.00 0.00 0.00 0.01 0.00 0.00 0.00 0.00 0.00 0.00 0.00 0.00 0.00 0.00 0.00 0.00 0.00 0.00 0.00 0.00 0.00 0.00 0.00 0.00 0.00 0.00 0.00 0.00 0.00 0.00 0.00 0.00 0.00 0.00 0.00 0.00 0.00 0.00 0.00 0.00 0.00 0.00 0.00 0.00 0.00 0.00 0.00 0.00 0.00 0.00 0.00 0.00 0.00
0.00 0.00 0.00 0.00 0.00 0.00 0.00 0.00 0.00 0.00 0.00 0.00 0.00 0.00 0.00 0.00 0.00 0.00 0.00 0.00 0.00 0.00 0.00 0.00 0.00 0.00 0.00 0.00 0.00 0.00 0.00 0.00 0.00 0.00 0.00 0.00 0.00 0.00 0.00 0.00 0.00 0.00 0.00 0.00 0.00 0.00 0.00 0.00 0.00 0.00 0.00 0.00 0.00 0.00
0.00 0.00 0.00 0.00 0.00 0.00 0.00 0.00 0.00 0.00 0.00 0.00 0.00 0.00 0.00 0.00 0.00 0.00 0.00 0.00 0.00 0.00 0.00 0.00 0.00 0.00 0.00 0.00 0.00 0.00 0.00 0.00 0.00 0.00 0.00 0.00 0.00 0.00 0.00 0.00 0.00 0.00 0.00 0.00 0.00 0.00 0.00 0.00 0.00 0.00 0.00 0.00 0.00 0.00
0.00 0.00 0.00 0.00 0.00 0.00 0.00 0.00 0.00 0.00 0.00 0.00 0.00 0.00 0.00 0.00 0.00 0.00 0.00 0.00 0.00 0.00 0.00 0.00 0.00 0.00 0.00 0.00 0.00 0.00 0.00 0.00 0.00 0.00 0.00 0.00 0.00 0.00 0.00 0.00 0.00 0.00 0.00 0.00 0.00 0.00 0.00 0.00 0.00 0.00 0.00 0.00 0.00 0.00
0.00 0.00 0.00 0.00 0.00 0.00 0.00 0.00 0.00 0.00 0.00 0.00 0.00 0.00 0.00 0.00 0.00 0.00 0.00 0.00 0.00 0.00 0.00 0.00 0.00 0.00 0.00 0.00 0.00 0.00 0.00 0.00 0.00 0.00 0.00 0.00 0.00 0.00 0.00 0.00 0.00 0.00 0.00 0.00 0.00 0.00 0.00 0.00 0.00 0.00 0.00 0.00 0.00 0.00
0.00 0.00 0.00 0.00 0.00 0.00 0.00 0.00 0.00 0.00 0.00 0.00 0.00 0.00 0.00 0.00 0.00 0.00 0.00 0.00 0.00 0.00 0.00 0.00 0.00 0.00 0.00 0.00 0.00 0.00 0.00 0.00 0.00 0.00 0.00 0.00 0.00 0.00 0.00 0.00 0.00 0.00 0.00 0.00 0.00 0.00 0.00 0.00 0.00 0.00 0.00 0.00 0.00 0.00
0.01 0.00 0.00 0.00 0.00 0.00 0.00 0.00 0.00 0.00 0.00 0.00 0.00 0.00 0.01 0.02 0.02 0.01 0.01 0.02 0.00 0.00 0.00 0.01 0.00 0.00 0.00 0.00 0.00 0.00 0.00 0.00 0.00 0.00 0.00 0.00 0.00 0.00 0.00 0.00 0.00 0.00 0.00 0.00 0.00 0.00 0.00 0.00 0.00 0.00 0.00 0.00 0.00 0.00
0.00 0.00 0.00 0.00 0.00 0.00 0.00 0.00 0.00 0.00 0.00 0.00 0.00 0.00 0.00 0.00 0.00 0.00 0.03 0.03 0.01 0.00 0.00 0.00 0.00 0.00 0.00 0.00 0.00 0.00 0.00 0.00 0.00 0.00 0.00 0.00 0.00 0.00 0.00 0.00 0.00 0.00 0.00 0.00 0.00 0.00 0.00 0.00 0.00 0.00 0.00 0.00 0.00 0.00
0.00 0.00 0.00 0.00 0.00 0.00 0.00 0.00 0.00 0.00 0.00 0.00 0.00 0.00 0.00 0.00 0.00 0.00 0.01 0.03 0.02 0.01 0.00 0.00 0.00 0.00 0.00 0.00 0.00 0.00 0.00 0.00 0.00 0.00 0.00 0.00 0.00 0.00 0.00 0.00 0.00 0.00 0.00 0.00 0.00 0.00 0.00 0.00 0.00 0.00 0.00 0.00 0.00 0.00
0.00 0.00 0.00 0.00 0.00 0.00 0.00 0.00 0.00 0.00 0.00 0.00 0.00 0.00 0.00 0.00 0.00 0.01 0.00 0.01 0.01 0.00 0.00 0.00 0.00 0.00 0.00 0.01 0.00 0.00 0.00 0.00 0.00 0.00 0.00 0.00 0.00 0.00 0.00 0.00 0.00 0.00 0.00 0.00 0.00 0.00 0.00 0.00 0.00 0.00 0.00 0.00 0.00 0.00
0.00 0.00 0.00 0.00 0.00 0.00 0.00 0.00 0.00 0.00 0.00 0.00 0.00 0.00 0.00 0.00 0.00 0.00 0.00 0.00 0.00 0.00 0.00 0.00 0.00 0.00 0.00 0.00 0.00 0.01 0.00 0.00 0.00 0.00 0.00 0.00 0.00 0.00 0.00 0.00 0.00 0.00 0.00 0.00 0.00 0.00 0.00 0.00 0.00 0.00 0.00 0.00 0.00 0.00
0.00 0.00 0.00 0.01 0.01 0.02 0.00 0.00 0.00 0.00 0.00 0.00 0.00 0.00 0.00 0.00 0.00 0.00 0.00 0.00 0.00 0.00 0.00 0.00 0.00 0.00 0.00 0.00 0.00 0.00 0.00 0.00 0.00 0.00 0.00 0.00 0.00 0.00 0.00 0.00 0.00 0.00 0.00 0.00 0.00 0.00 0.00 0.00 0.00 0.00 0.00 0.00 0.00 0.00
0.00 0.00 0.01 0.01 0.00 0.00 0.00 0.00 0.00 0.00 0.00 0.00 0.00 0.00 0.00 0.00 0.00 0.00 0.00 0.00 0.00 0.00 0.00 0.00 0.00 0.00 0.00 0.00 0.00 0.00 0.00 0.00 0.00 0.00 0.00 0.00 0.00 0.00 0.00 0.00 0.00 0.00 0.00 0.00 0.00 0.00 0.00 0.00 0.00 0.00 0.00 0.00 0.00 0.00
0.00 0.01 0.02 0.01 0.00 0.00 0.00 0.01 0.01 0.00 0.00 0.00 0.00 0.00 0.00 0.00 0.01 0.00 0.00 0.00 0.00 0.00 0.00 0.00 0.00 0.00 0.00 0.00 0.00 0.00 0.00 0.00 0.00 0.00 0.00 0.00 0.00 0.00 0.00 0.00 0.00 0.00 0.00 0.00 0.00 0.00 0.00 0.00 0.00 0.00 0.00 0.00 0.00 0.00
0.01 0.01 0.02 0.01 0.00 0.01 0.00 0.01 0.03 0.01 0.00 0.00 0.00 0.00 0.01 0.01 0.01 0.00 0.00 0.00 0.00 0.00 0.00 0.00 0.00 0.00 0.00 0.00 0.00 0.00 0.00 0.00 0.00 0.00 0.00 0.00 0.00 0.00 0.00 0.00 0.00 0.00 0.00 0.00 0.00 0.00 0.00 0.00 0.00 0.00 0.00 0.00 0.00 0.00
MSLP
1021.79 1021.50 1021.22 1020.84 1020.47 1020.12 1019.85 1019.59 1019.21 1018.84 1018.54 1018.18 1017.80 1017.46 1017.14 1016.92 1016.84 1017.15 1017.01 1017.13 1017.41 1016.27 1015.38 1015.14 1014.56 1013.90 1012.73 1011.66 1010.58 1010.25 1009.40 1008.60 1007.86 1007.00 1005.69 1004.35 1002.77 1000.98 1000.19 999.66 999.89 1000.23 1000.62 1000.59 1000.11 998.52 996.73 995.87 996.89 996.28 996.35 996.83 997.31 998.57
1021.52 1021.23 1020.90 1020.53 1020.23 1019.90 1019.51 1019.23 1018.87 1018.56 1018.23 1017.84 1017.51 1017.15 1016.85 1016.53 1016.41 1016.63 1016.76 1016.35 1016.47 1016.31 1015.29 1014.62 1014.21 1013.78 1012.97 1012.56 1012.18 1010.93 1010.01 1009.20 1008.35 1007.41 1006.58 1005.34 1003.28 1001.36 999.85 998.94 998.93 998.43 997.19 997.58 997.92 996.72 995.94 995.66 995.25 995.24 995.58 996.41 997.38 998.19
1020.94 1020.77 1020.54 1020.26 1019.96 1019.70 1019.25 1018.86 1018.53 1018.27 1017.98 1017.56 1017.17 1016.80 1016.60 1016.41 1016.28 1016.28 1016.26 1016.21 1016.20 1015.67 1014.46 1013.34 1011.67 1010.72 1011.30 1011.24 1011.69 1011.41 1010.15 1009.71 1009.41 1009.15 1008.13 1006.57 1004.36 1001.92 999.74 998.57 997.69 997.69 997.46 996.53 997.31 996.25 995.67 995.49 995.27 994.96 995.33 995.47 996.27 997.22
1020.72 1020.38 1020.10 1019.82 1019.52 1019.24 1018.85 1018.44 1018.14 1017.89 1017.58 1017.13 1016.71 1016.40 1016.17 1015.97 1015.94 1016.03 1016.07 1015.80 1015.92 1016.04 1014.72 1011.04 1009.82 1009.53 1009.07 1009.54 1010.06 1010.22 1010.17 1010.38 1010.23 1009.70 1008.46 1007.14 1004.85 1002.22 1000.10 999.10 998.09 997.30 997.15 996.37 995.93 995.67 995.50 995.21 995.17 994.71 995.34 995.90 996.65 997.85
1020.21 1020.02 1019.68 1019.44 1019.20 1018.87 1018.49 1018.05 1017.70 1017.44 1017.08 1016.60 1016.22 1015.86 1015.59 1015.46 1015.47 1015.41 1015.11 1014.91 1015.07 1015.56 1013.93 1011.39 1009.82 1008.55 1008.19 1008.75 1009.06 1009.74 1010.26 1010.53 1010.31 1009.44 1008.65 1006.72 1004.32 1002.59 1000.65 999.75 998.11 997.79 996.90 996.07 994.78 994.60 994.41 994.34 994.16 994.94 995.14 995.53 996.41 997.36
1019.76 1019.55 1019.34 1019.01 1018.67 1018.34 1018.05 1017.64 1017.25 1016.98 1016.52 1015.98 1015.59 1015.21 1014.94 1014.87 1014.99 1015.08 1014.52 1014.57 1014.40 1014.85 1014.18 1011.90 1009.26 1008.37 1008.29 1008.43 1008.90 1009.45 1009.68 1009.93 1009.78 1009.34 1008.42 1006.17 1003.85 1002.98 1000.72 999.10 998.41 998.13 997.85 997.36 995.72 994.87 994.66 994.50 994.33 994.37 994.76 995.54 995.94 996.74
1019.45 1019.15 1018.83 1018.47 1018.16 1017.87 1017.51 1017.11 1016.76 1016.44 1015.94 1015.32 1014.84 1014.46 1014.24 1014.23 1014.50 1014.53 1014.13 1014.23 1014.33 1014.74 1014.04 1012.06 1009.63 1008.56 1008.33 1008.48 1008.77 1009.07 1009.54 1009.42 1009.33 1009.07 1007.63 1005.46 1003.78 1003.18 1000.87 999.27 998.72 998.34 997.84 997.26 996.61 995.77 995.28 994.79 993.75 994.18 994.90 995.62 996.76 997.92
1018.84 1018.71 1018.36 1018.02 1017.71 1017.37 1016.95 1016.53 1016.17 1015.81 1015.25 1014.63 1014.03 1013.67 1013.45 1013.37 1013.87 1013.83 1012.98 1013.30 1014.14 1014.14 1013.57 1011.91 1009.54 1008.33 1008.20 1008.05 1008.47 1008.92 1008.80 1008.53 1008.43 1007.75 1006.27 1004.97 1003.90 1002.84 1000.79 999.92 999.54 998.84 998.15 997.20 996.54 995.10 994.61 994.22 993.99 994.39 995.12 996.12 997.07 997.83
1018.27 1018.06 1017.83 1017.44 1017.20 1016.82 1016.37 1015.93 1015.55 1015.13 1014.56 1013.93 1013.25 1013.05 1013.36 1013.31 1013.14 1012.63 1012.84 1013.27 1013.55 1013.78 1012.68 1011.20 1009.36 1007.50 1007.60 1007.94 1008.28 1008.48 1008.49 1008.76 1007.66 1006.81 1005.39 1004.79 1003.51 1002.36 1001.56 1000.89 1000.06 999.41 998.88 997.76 996.03 994.41 994.31 994.15 994.13 994.63 995.16 996.34 997.43 998.08
1017.89 1017.51 1017.30 1016.93 1016.64 1016.22 1015.76 1015.38 1015.02 1014.62 1014.01 1013.50 1012.99 1013.02 1012.76 1012.76 1012.60 1012.31 1012.68 1012.81 1013.12 1012.92 1012.39 1010.84 1009.01 1007.68 1007.39 1007.46 1008.15 1008.34 1008.38 1008.19 1006.41 1005.17 1004.66 1004.32 1003.34 1002.40 1001.79 1001.35 1000.64 999.74 999.06 997.65 995.35 994.84 994.72 994.45 994.61 995.10 995.60 996.40 996.98 997.21
1017.35 1017.06 1016.73 1016.42 1016.12 1015.61 1015.09 1014.87 1014.66 1014.33 1013.80 1013.81 1013.75 1013.29 1013.02 1012.69 1012.30 1011.87 1011.54 1011.56 1011.23 1011.02 1010.41 1009.03 1008.23 1007.87 1007.19 1006.96 1007.34 1007.91 1007.96 1007.20 1005.89 1004.44 1004.07 1003.87 1002.98 1002.26 1001.75 1001.21 1000.58 999.69 998.71 997.33 996.08 995.46 995.37 995.00 995.31 995.97 996.76 997.40 998.28 999.03
1016.91 1016.57 1016.25 1015.91 1015.59 1015.05 1014.47 1014.25 1014.21 1014.35 1014.22 1014.28 1014.45 1014.05 1013.60 1012.72 1012.05 1011.61 1010.70 1010.24 1010.09 1009.18 1009.00 1007.97 1007.26 1007.13 1006.62 1006.48 1006.11 1007.12 1006.79 1006.71 1004.92 1003.78 1003.20 1003.33 1002.87 1002.50 1001.92 1001.35 1000.80 999.95 998.85 997.59 996.69 996.51 995.62 995.67 996.34 996.87 997.56 998.25 998.93 999.92
1016.42 1016.09 1015.78 1015.45 1015.13 1014.62 1014.18 1013.91 1013.80 1013.85 1013.92 1014.13 1014.18 1013.79 1013.12 1012.44 1011.78 1010.78 1010.00 1009.37 1008.99 1008.50 1008.18 1007.58 1006.70 1006.24 1005.85 1005.80 1005.45 1005.51 1005.59 1004.39 1003.47 1002.88 1002.58 1003.18 1003.17 1003.34 1002.81 1002.13 1001.15 1000.14 999.11 998.24 997.53 996.63 996.58 996.88 997.26 997.44 998.24 998.86 999.31 999.99
1015.88 1015.54 1015.26 1015.01 1014.76 1014.36 1014.00 1013.78 1013.63 1013.61 1013.68 1013.68 1013.52 1013.43 1012.59 1011.40 1010.61 1009.67 1009.42 1009.18 1008.86 1008.38 1007.80 1007.35 1006.53 1005.79 1005.35 1004.80 1004.43 1003.97 1004.18 1004.22 1003.73 1002.98 1002.28 1003.26 1003.40 1004.25 1003.78 1002.79 1001.52 1000.45 999.76 999.25 998.20 997.80 997.92 998.24 998.33 998.69 999.03 999.25 999.44 1000.32
1015.37 1014.96 1014.68 1014.50 1014.38 1014.14 1013.84 1013.69 1013.53 1013.49 1013.48 1013.27 1013.11 1012.23 1011.45 1010.78 1010.02 1009.23 1009.40 1009.30 1008.76 1008.48 1007.89 1006.84 1006.02 1005.63 1004.98 1004.64 1004.34 1003.88 1003.36 1002.67 1002.41 1002.59 1002.66 1003.50 1003.66 1004.05 1003.05 1002.19 1001.84 1001.07 1000.81 999.91 999.17 999.11 999.10 999.20 999.50 999.66 999.86 1000.10 1000.19 1000.84
1015.00 1014.42 1013.99 1014.06 1014.11 1013.88 1013.55 1013.39 1013.20 1013.26 1013.18 1012.89 1012.28 1011.32 1010.67 1010.46 1009.76 1009.50 1008.91 1008.65 1008.60 1008.32 1007.83 1007.14 1006.42 1005.87 1005.18 1004.83 1003.90 1003.52 1003.23 1002.91 1002.94 1002.98 1004.28 1005.60 1005.40 1004.29 1003.58 1003.08 1002.65 1001.54 1001.24 1000.72 1000.23 1000.18 1000.01 999.86 1000.00 1000.41 1000.78 1001.02 1001.34 1001.54
1014.77 1014.21 1013.63 1013.78 1013.77 1013.43 1013.09 1013.19 1013.07 1013.01 1012.62 1012.12 1011.19 1010.63 1010.48 1010.13 1009.59 1008.88 1008.59 1008.22 1008.62 1008.04 1007.50 1007.16 1006.69 1006.02 1005.84 1004.71 1003.78 1003.34 1003.16 1003.28 1003.59 1004.44 1005.17 1005.30 1004.61 1003.91 1002.95 1002.52 1002.44 1001.97 1002.30 1001.77 1001.15 1001.08 1001.12 1001.08 1000.96 1001.00 1001.18 1001.77 1001.82 1002.05
1014.42 1013.56 1013.51 1013.62 1013.54 1013.15 1012.90 1012.84 1012.84 1012.58 1011.90 1011.23 1010.93 1010.21 1010.06 1009.77 1009.52 1009.29 1008.79 1008.41 1008.24 1007.96 1008.05 1007.56 1007.32 1006.43 1005.38 1004.22 1003.39 1003.13 1003.33 1003.56 1003.72 1004.07 1004.47 1004.56 1004.30 1003.88 1003.72 1003.64 1003.73 1003.59 1003.36 1002.56 1002.54 1002.31 1002.10 1002.02 1001.90 1001.91 1002.06 1002.59 1002.93 1002.72
1013.81 1013.27 1012.94 1013.04 1013.07 1013.08 1012.72 1012.66 1012.71 1012.07 1011.01 1010.64 1010.19 1010.05 1009.85 1009.37 1008.92 1008.79 1008.87 1008.81 1008.43 1008.19 1007.72 1007.49 1006.99 1005.82 1004.93 1004.37 1003.91 1003.63 1003.88 1004.08 1004.39 1004.69 1004.84 1005.20 1005.32 1005.04 1004.77 1004.60 1004.24 1003.84 1003.42 1003.26 1003.28 1003.10 1002.82 1002.66 1002.42 1002.42 1002.79 1003.05 1003.30 1003.39
1013.14 1012.67 1012.30 1012.07 1012.47 1012.62 1012.50 1012.24 1012.31 1011.76 1010.70 1010.00 1009.67 1009.29 1008.96 1008.62 1008.43 1008.36 1008.51 1008.76 1008.94 1008.95 1008.52 1007.52 1005.88 1005.09 1004.43 1004.04 1004.14 1004.01 1004.12 1004.35 1004.46 1004.78 1005.03 1005.32 1005.44 1005.53 1005.39 1005.16 1004.84 1004.52 1004.06 1003.78 1003.67 1003.49 1003.38 1003.00 1002.83 1002.85 1003.16 1003.44 1003.71 1004.38
1012.75 1012.49 1012.37 1012.42 1012.38 1012.34 1012.14 1011.65 1011.35 1010.82 1010.13 1009.57 1008.94 1008.71 1008.16 1007.88 1007.81 1007.79 1007.88 1008.23 1008.48 1007.75 1006.56 1005.33 1005.05 1004.78 1004.77 1004.71 1004.57 1004.35 1004.28 1004.45 1004.61 1005.07 1005.55 1005.82 1005.97 1005.92 1005.57 1005.27 1005.28 1004.99 1004.59 1004.23 1003.94 1003.73 1003.64 1003.50 1003.32 1003.10 1003.19 1003.41 1003.58 1004.00
1012.76 1012.51 1012.28 1012.19 1012.03 1011.87 1011.60 1011.00 1010.63 1009.99 1009.61 1008.60 1008.24 1007.76 1007.34 1006.95 1006.87 1006.87 1007.20 1007.43 1007.05 1005.86 1005.03 1004.13 1003.82 1004.04 1004.42 1004.66 1004.62 1004.65 1004.45 1004.72 1005.04 1005.47 1005.96 1006.27 1006.15 1005.97 1005.57 1005.55 1005.67 1005.20 1004.96 1004.89 1004.45 1004.08 1003.85 1003.79 1003.62 1003.47 1003.46 1003.67 1003.88 1004.05
1012.51 1012.46 1011.87 1011.58 1011.51 1011.10 1010.51 1010.11 1009.91 1009.17 1008.61 1007.72 1007.21 1006.75 1006.29 1005.95 1006.00 1006.39 1006.49 1006.15 1005.19 1004.11 1003.74 1003.60 1003.28 1003.17 1003.45 1003.71 1004.28 1004.51 1004.78 1004.88 1005.01 1005.26 1005.65 1005.92 1006.08 1005.96 1005.62 1005.54 1005.51 1005.18 1004.90 1004.69 1004.35 1004.19 1004.04 1004.07 1003.98 1003.71 1003.73 1004.02 1004.26 1004.53
1012.12 1011.78 1011.07 1010.72 1010.64 1010.09 1009.52 1009.03 1008.64 1008.01 1007.50 1006.88 1006.33 1005.74 1005.42 1005.31 1005.79 1005.76 1005.30 1004.53 1003.53 1002.85 1002.66 1002.38 1002.45 1002.82 1003.08 1003.29 1003.56 1003.78 1004.06 1004.45 1004.60 1005.08 1005.34 1005.52 1005.43 1005.32 1005.34 1005.21 1005.32 1005.30 1005.01 1004.80 1004.74 1004.56 1004.36 1004.02 1003.86 1003.84 1003.92 1004.20 1004.57 1005.00
1011.82 1011.01 1010.74 1010.00 1009.68 1009.24 1008.48 1007.75 1007.16 1006.82 1006.35 1005.97 1005.61 1005.12 1004.84 1004.73 1005.09 1005.24 1004.61 1003.76 1003.04 1002.40 1001.86 1001.46 1001.56 1002.20 1002.54 1002.85 1003.08 1003.34 1003.67 1003.92 1004.17 1004.33 1004.34 1004.84 1004.98 1005.06 1004.95 1004.95 1005.01 1004.95 1004.84 1004.61 1004.50 1004.38 1004.18 1003.96 1003.71 1003.75 1003.96 1004.31 1004.69 1005.18
1010.98 1009.94 1009.78 1009.02 1008.55 1008.34 1007.54 1006.99 1006.41 1006.05 1005.77 1005.44 1005.06 1004.74 1004.51 1004.51 1004.80 1004.76 1004.15 1003.80 1003.29 1002.70 1002.23 1001.96 1001.99 1002.24 1002.50 1002.52 1002.65 1002.85 1003.04 1003.49 1003.62 1003.69 1003.80 1003.95 1004.11 1004.29 1004.40 1004.56 1004.46 1004.31 1004.28 1004.22 1004.15 1004.18 1004.25 1004.30 1004.23 1004.21 1004.41 1004.70 1005.08 1005.49
1010.19 1009.07 1008.61 1008.43 1008.26 1007.86 1007.00 1006.25 1005.92 1005.61 1005.45 1005.17 1004.93 1004.61 1004.51 1004.58 1004.79 1004.64 1004.16 1003.93 1003.57 1002.88 1002.85 1002.44 1002.26 1002.20 1002.23 1002.26 1002.36 1002.40 1002.52 1002.91 1003.09 1003.15 1003.19 1003.23 1003.61 1003.94 1003.98 1004.03 1004.13 1004.16 1004.05 1003.96 1004.00 1004.04 1004.27 1004.52 1004.58 1004.67 1004.92 1005.30 1005.64 1006.00
1009.59 1008.73 1008.23 1007.90 1007.66 1007.00 1006.39 1006.01 1005.59 1005.35 1005.31 1005.10 1004.93 1004.98 1005.15 1005.23 1005.23 1004.77 1004.34 1003.89 1003.80 1003.26 1003.15 1003.00 1002.72 1002.41 1002.31 1002.32 1002.42 1002.55 1002.78 1002.99 1003.30 1003.56 1003.75 1003.94 1003.95 1003.95 1004.02 1004.20 1004.32 1004.31 1004.02 1004.11 1004.38 1004.44 1004.47 1004.75 1005.03 1005.26 1005.39 1005.77 1006.10 1006.53
1009.01 1008.15 1007.92 1007.14 1006.54 1006.29 1005.93 1005.82 1005.48 1005.40 1005.35 1005.31 1005.30 1005.48 1005.37 1005.31 1004.93 1004.60 1004.16 1003.93 1003.97 1003.68 1003.29 1002.86 1002.95 1002.71 1002.66 1002.69 1002.69 1002.92 1003.03 1003.14 1003.26 1003.41 1003.64 1004.18 1004.39 1004.64 1004.58 1004.67 1004.63 1004.47 1004.57 1004.95 1005.13 1005.00 1005.10 1005.36 1005.54 1005.60 1005.89 1006.34 1006.94 1007.37
1007.90 1007.54 1007.19 1006.34 1006.00 1005.56 1005.41 1005.35 1005.23 1005.20 1005.28 1005.35 1005.47 1005.56 1005.22 1004.98 1004.60 1004.41 1004.15 1003.66 1003.35 1003.31 1003.19 1002.99 1003.08 1002.89 1002.84 1002.79 1003.04 1003.22 1003.30 1003.35 1003.48 1003.70 1003.98 1004.21 1004.60 1004.67 1004.72 1004.87 1005.06 1005.01 1004.94 1005.24 1005.42 1005.66 1005.82 1005.91 1006.08 1006.05 1006.24 1006.25 1006.65 1006.97
1007.11 1006.81 1006.56 1005.82 1005.53 1005.36 1005.19 1005.09 1005.05 1005.17 1005.21 1005.40 1005.54 1005.45 1005.34 1005.12 1004.39 1004.20 1004.13 1003.86 1003.49 1003.18 1002.82 1002.82 1002.96 1003.03 1002.87 1002.87 1002.95 1003.03 1003.52 1003.84 1004.03 1004.08 1004.36 1004.51 1004.69 1004.73 1004.91 1004.94 1004.95 1004.91 1004.93 1005.11 1005.30 1005.52 1005.87 1005.96 1005.96 1005.91 1005.88 1006.06 1006.33 1006.55
1006.40 1006.15 1005.71 1005.48 1005.27 1005.16 1004.93 1004.89 1004.95 1005.14 1005.23 1005.34 1005.37 1005.35 1005.07 1004.85 1004.41 1004.20 1004.01 1003.79 1003.53 1003.25 1003.27 1002.98 1002.89 1003.10 1003.19 1003.28 1003.39 1003.55 1003.68 1003.79 1003.97 1004.11 1004.41 1004.51 1004.67 1004.75 1004.73 1004.80 1004.99 1005.10 1005.06 1005.18 1005.38 1005.63 1005.92 1005.93 1005.79 1005.71 1005.72 1005.94 1006.23 1006.44
1005.75 1005.65 1005.32 1005.22 1005.18 1005.17 1005.29 1004.99 1004.80 1004.79 1004.99 1005.28 1005.26 1005.04 1004.83 1004.58 1004.35 1004.18 1004.11 1004.01 1004.06 1003.88 1003.65 1003.54 1003.55 1003.61 1003.72 1003.60 1003.65 1003.83 1003.91 1004.24 1004.39 1004.43 1004.44 1004.46 1004.60 1004.78 1004.87 1005.03 1005.12 1005.05 1005.06 1005.24 1005.43 1005.56 1005.64 1005.69 1005.73 1005.85 1005.87 1005.95 1006.15 1006.34
Thickness
5560 5556 5551 5546 5542 5538 5533 5527 5519 5511 5502 5492 5482 5473 5465 5458 5451 5444 5442 5439 5437 5450 5461 5467 5481 5493 5516 5541 5562 5579 5600 5614 5629 5642 5666 5688 5704 5735 5744 5764 5755 5757 5752 5749 5764 5773 5786 5864 5852 5840 5871 5883 5891 5887
5553 5549 5544 5539 5535 5531 5527 5520 5511 5502 5492 5483 5473 5465 5460 5456 5450 5444 5440 5442 5441 5443 5455 5465 5474 5488 5507 5525 5542 5565 5584 5598 5618 5636 5652 5669 5696 5722 5747 5750 5768 5767 5797 5787 5793 5802 5846 5861 5872 5892 5899 5888 5888 5889
5549 5543 5538 5533 5529 5524 5520 5513 5504 5494 5485 5475 5468 5463 5458 5452 5448 5444 5442 5441 5441 5445 5458 5471 5490 5504 5511 5528 5541 5555 5578 5593 5606 5622 5637 5657 5674 5715 5734 5755 5775 5781 5794 5806 5798 5826 5842 5858 5875 5891 5895 5901 5901 5902
5542 5538 5534 5529 5526 5521 5516 5509 5500 5490 5480 5473 5467 5462 5458 5453 5448 5443 5441 5443 5443 5442 5451 5495 5507 5515 5531 5540 5551 5562 5575 5584 5596 5615 5632 5645 5671 5713 5733 5747 5762 5785 5790 5798 5814 5826 5848 5860 5872 5889 5892 5896 5895 5893
5538 5533 5530 5526 5522 5517 5512 5506 5498 5488 5480 5474 5469 5466 5461 5457 5452 5450 5451 5452 5451 5448 5465 5489 5509 5529 5542 5549 5559 5567 5572 5579 5593 5612 5623 5646 5681 5702 5727 5738 5761 5775 5789 5804 5814 5839 5851 5865 5883 5886 5889 5891 5894 5891
5534 5530 5526 5524 5521 5517 5510 5504 5497 5488 5482 5479 5475 5472 5469 5464 5459 5456 5461 5460 5461 5458 5465 5490 5521 5534 5544 5555 5563 5568 5576 5582 5594 5609 5621 5653 5684 5695 5717 5739 5761 5775 5784 5796 5817 5843 5853 5865 5879 5891 5893 5892 5898 5897
5529 5527 5524 5523 5520 5516 5511 5505 5498 5491 5486 5485 5483 5480 5476 5471 5467 5467 5474 5469 5468 5466 5473 5494 5526 5541 5552 5558 5563 5571 5575 5584 5596 5606 5626 5652 5678 5688 5716 5735 5758 5772 5785 5798 5814 5830 5839 5857 5875 5889 5892 5893 5885 5884
5529 5525 5523 5522 5519 5516 5512 5507 5501 5495 5492 5492 5491 5488 5485 5482 5476 5477 5483 5482 5476 5480 5488 5503 5535 5549 5557 5563 5567 5573 5583 5592 5602 5615 5637 5653 5672 5689 5716 5738 5751 5767 5779 5798 5813 5839 5852 5866 5877 5881 5885 5882 5878 5875
5528 5525 5522 5522 5518 5516 5514 5510 5505 5500 5498 5499 5499 5496 5492 5490 5490 5494 5490 5487 5486 5490 5503 5519 5539 5562 5566 5566 5567 5575 5581 5586 5607 5615 5638 5656 5672 5687 5707 5724 5741 5758 5769 5787 5818 5843 5851 5859 5867 5872 5876 5873 5867 5868
5525 5525 5522 5521 5520 5519 5516 5513 5508 5504 5502 5503 5503 5502 5505 5500 5497 5498 5496 5500 5496 5500 5503 5519 5543 5558 5566 5571 5570 5578 5580 5583 5610 5630 5643 5654 5669 5692 5708 5722 5738 5755 5770 5792 5821 5829 5838 5847 5856 5861 5866 5870 5872 5874
5525 5523 5522 5522 5520 5521 5519 5515 5510 5506 5505 5501 5497 5503 5500 5500 5506 5511 5515 5515 5520 5524 5526 5542 5549 5554 5568 5575 5575 5576 5578 5590 5606 5635 5646 5650 5674 5690 5708 5722 5738 5758 5774 5796 5814 5827 5835 5843 5846 5846 5850 5855 5856 5855
5524 5523 5522 5522 5522 5522 5523 5519 5513 5506 5501 5497 5492 5493 5495 5504 5509 5517 5527 5530 5530 5543 5542 5551 5561 5562 5573 5581 5593 5585 5591 5596 5612 5640 5652 5654 5672 5689 5704 5719 5734 5754 5772 5792 5808 5815 5829 5834 5833 5833 5837 5840 5843 5840
5523 5523 5522 5523 5522 5523 5523 5520 5515 5510 5505 5498 5495 5496 5502 5508 5506 5524 5535 5541 5543 5547 5552 5557 5567 5574 5582 5587 5595 5596 5590 5609 5629 5643 5654 5657 5659 5681 5696 5712 5731 5752 5769 5784 5797 5812 5818 5819 5823 5828 5827 5831 5834 5832
5524 5523 5523 5523 5523 5523 5522 5520 5516 5512 5507 5507 5504 5487 5509 5523 5526 5535 5536 5538 5541 5548 5556 5560 5570 5578 5588 5599 5603 5613 5612 5615 5626 5639 5656 5659 5662 5671 5687 5707 5728 5746 5761 5771 5786 5797 5801 5804 5810 5815 5819 5825 5829 5825
5523 5524 5524 5523 5523 5522 5522 5519 5515 5512 5509 5510 5508 5505 5518 5523 5527 5537 5534 5534 5542 5545 5554 5568 5580 5585 5591 5596 5601 5611 5617 5627 5638 5642 5656 5660 5661 5666 5689 5708 5720 5737 5747 5762 5775 5781 5788 5793 5797 5802 5808 5813 5818 5817
5522 5525 5527 5524 5523 5523 5522 5520 5518 5513 5511 5512 5514 5520 5527 5525 5534 5532 5540 5544 5545 5546 5554 5564 5572 5580 5590 5593 5610 5615 5621 5626 5634 5646 5641 5642 5647 5665 5680 5696 5709 5725 5734 5747 5759 5767 5775 5783 5787 5789 5793 5797 5800 5803
5520 5523 5526 5523 5522 5524 5525 5521 5518 5515 5518 5519 5523 5524 5524 5524 5532 5543 5543 5549 5543 5554 5562 5565 5569 5577 5578 5595 5608 5618 5627 5630 5635 5635 5633 5638 5654 5669 5687 5699 5706 5718 5722 5733 5745 5754 5760 5766 5772 5776 5778 5779 5787 5790
5519 5523 5524 5522 5522 5524 5525 5523 5519 5519 5524 5526 5521 5528 5528 5530 5528 5530 5537 5544 5549 5553 5553 5563 5559 5567 5580 5595 5609 5620 5623 5630 5638 5640 5641 5646 5656 5668 5678 5685 5692 5701 5710 5724 5730 5737 5744 5752 5757 5761 5766 5766 5767 5772
5519 5522 5525 5524 5524 5523 5527 5524 5519 5524 5532 5530 5528 5527 5528 5531 5534 5535 5531 5530 5540 5544 5552 5554 5558 5572 5586 5596 5603 5609 5613 5618 5623 5628 5635 5636 5642 5652 5663 5672 5683 5692 5702 5710 5716 5724 5732 5738 5745 5751 5752 5755 5754 5756
5521 5525 5528 5529 5526 5525 5527 5528 5520 5521 5531 5538 5532 5533 5534 5536 5535 5534 5532 5527 5525 5526 5535 5540 5563 5575 5585 5595 5597 5604 5610 5614 5619 5622 5627 5631 5637 5642 5649 5658 5667 5677 5688 5697 5704 5707 5717 5728 5734 5737 5740 5742 5742 5737
5520 5523 5525 5525 5525 5525 5527 5530 5529 5529 5533 5535 5538 5535 5539 5538 5538 5539 5537 5530 5531 5538 5549 5567 5569 5574 5573 5577 5585 5595 5602 5607 5611 5614 5615 5619 5624 5632 5642 5652 5655 5663 5673 5682 5691 5698 5703 5709 5716 5723 5728 5730 5732 5733
5518 5521 5524 5525 5527 5527 5528 5532 5534 5536 5538 5543 5543 5544 5548 5553 5551 5547 5541 5539 5542 5555 5563 5573 5576 5575 5575 5575 5580 5583 5594 5597 5601 5603 5597 5605 5617 5625 5635 5642 5645 5654 5661 5666 5677 5684 5691 5696 5702 5708 5712 5714 5717 5720
5518 5520 5527 5529 5531 5531 5537 5537 5540 5544 5547 5554 5554 5558 5562 5562 5557 5545 5546 5548 5555 5563 5564 5564 5570 5573 5574 5578 5579 5582 5586 5593 5597 5601 5604 5608 5611 5619 5628 5635 5641 5648 5655 5661 5670 5676 5681 5683 5689 5696 5699 5700 5702 5704
5520 5527 5536 5540 5537 5541 5547 5550 5550 5555 5557 5563 5566 5570 5571 5568 5552 5554 5562 5567 5571 5572 5568 5567 5563 5564 5569 5574 5579 5586 5589 5591 5596 5596 5600 5605 5612 5620 5625 5631 5636 5639 5646 5652 5656 5662 5667 5674 5679 5683 5686 5688 5688 5686
5525 5536 5536 5533 5549 5552 5560 5566 5571 5571 5575 5575 5574 5576 5576 5573 5570 5566 5569 5573 5576 5576 5575 5575 5571 5567 5567 5573 5580 5584 5587 5591 5595 5599 5607 5606 5612 5617 5622 5628 5631 5636 5642 5647 5651 5655 5661 5666 5673 5676 5677 5677 5676 5674
5529 5547 5543 5557 5559 5558 5567 5572 5576 5578 5578 5579 5580 5580 5579 5577 5572 5570 5574 5575 5576 5577 5576 5577 5574 5571 5573 5581 5587 5590 5593 5594 5598 5602 5607 5613 5616 5619 5623 5625 5630 5637 5640 5644 5647 5649 5651 5653 5656 5659 5660 5660 5658 5660
5536 5554 5558 5553 5555 5560 5570 5577 5579 5580 5581 5583 5584 5585 5583 5580 5574 5575 5576 5576 5577 5580 5577 5579 5579 5580 5583 5587 5590 5594 5599 5599 5603 5609 5615 5619 5618 5618 5623 5627 5629 5633 5636 5640 5641 5644 5643 5643 5644 5646 5645 5645 5644 5644
5546 5554 5559 5562 5563 5568 5575 5579 5583 5583 5583 5584 5585 5584 5580 5577 5574 5579 5579 5580 5579 5581 5581 5581 5583 5586 5588 5588 5590 5593 5596 5599 5601 5603 5605 5607 5610 5613 5617 5619 5622 5624 5630 5632 5632 5634 5636 5636 5635 5634 5635 5633 5631 5630
5549 5558 5559 5567 5572 5574 5578 5579 5585 5584 5584 5584 5585 5582 5581 5580 5581 5582 5586 5586 5583 5584 5586 5589 5589 5593 5594 5595 5595 5594 5598 5601 5604 5607 5608 5607 5609 5608 5611 5614 5617 5621 5623 5621 5617 5622 5625 5625 5625 5627 5625 5623 5618 5614
5559 5563 5567 5575 5578 5583 5583 5585 5587 5588 5587 5586 5586 5584 5585 5586 5590 5590 5591 5594 5596 5593 5593 5595 5595 5599 5599 5601 5599 5600 5602 5602 5603 5605 5605 5605 5603 5604 5605 5607 5610 5614 5616 5615 5616 5615 5612 5614 5614 5616 5616 5617 5614 5612
5568 5568 5571 5581 5583 5584 5586 5589 5589 5589 5591 5588 5589 5588 5587 5589 5596 5598 5597 5599 5601 5602 5604 5603 5601 5602 5605 5606 5607 5608 5605 5604 5603 5603 5603 5600 5601 5604 5606 5609 5611 5612 5613 5612 5611 5612 5609 5609 5611 5612 5613 5612 5610 5608
5574 5575 5579 5581 5586 5587 5590 5590 5594 5589 5591 5590 5591 5592 5596 5597 5599 5601 5604 5606 5608 5608 5604 5610 5610 5608 5609 5608 5608 5607 5603 5609 5609 5609 5606 5607 5607 5608 5610 5610 5609 5609 5608 5607 5606 5604 5602 5605 5607 5608 5608 5607 5606 5605
5578 5579 5586 5587 5587 5588 5587 5590 5595 5596 5594 5592 5594 5597 5597 5601 5601 5603 5608 5609 5608 5609 5610 5611 5611 5611 5610 5612 5612 5610 5611 5609 5606 5605 5608 5611 5611 5611 5611 5610 5610 5610 5609 5608 5607 5607 5605 5605 5605 5605 5605 5605 5603 5602